METEOR 2-17 DEB, 38281

Orbit data source: Space-Track

METEOR 2-17 DEB, 38281 is space debris in LEO originally from a launch on Sat, 30 Jan 1988 UTC launched from the Plesetsk Missile And Space Complex (PKMTR). Debris objects in space refer to the collection of defunct objects orbiting the Earth. Examples of debris include non-operational satellites, rocket bodies, and fragments generated from explosions, collisions, or faulty payload assembly.

Loading next visibility...
Identifier
38281, 1988-005AJ
Orbit
LEO
Country
Flag of CISCIS
Related business
Manufacturer
Unknown
Mission
Spacecraft
Bus & Motor
Unknown
Mass
Unknown
Launch date (UTC)
1988-01-30 (38 years ago)
Launch vehicle
Unknown
Launch site
Plesetsk Missile And Space Complex (PKMTR)
Object type
Payload
Rocket body
Debris
Shape & HBR
Unknown shape, 0.1 m
Radar Cross Section
Small (<0.1 m²)

Expand to show TLE details & history
Last TLE update: 6 days ago

TLE from 6 days ago
0 METEOR 2-17 DEB
1 38281U 88005AJ  25346.92044940  .00005899  00000-0  36453-2 0  9999
2 38281  82.5289  54.2732 0012078  45.9827 314.2338 14.05125423565371
Epoch: 2025-12-12T22:05Z
TLE epoch observation values (Epoch: 2025-12-12T22:05:26.828Z)
Latitude
-0°
Longitude
1.05627°
Altitude
872.924 km
Speed
7.419 km/s
True Right ascension
03h 37m 05s
True Declination
0° 00' 00"
Sunlit
Object was in full shadow at epoch
Visualization orbit readout
Latitude
Unknown
Longitude
Unknown
Altitude
Unknown
Speed
Unknown
Apparent Right ascension
Unknown
Apparent Declination
Unknown
Sunlit
N/A
Visualization observer readout
Local Sidereal Time
21:16:32
Azimuth
Unknown
Elevation
Unknown
Doppler factor
Unknown
Orbital elements
Apogee altitude
881.983 km
Perigee altitude
864.466 km
Semi-major axis
7,251.361 km
Eccentricity
0.00121
Inclination
82.5289°
RAAN
54.2732°
Arg. of periapsis
45.9827°
True anomaly
314.13453°
Mean anomaly
314.2338°
Eccentric anomaly
314.18418°
Mean motion
3.51491 °/min
Orbital period
102.42 mins
BSTAR
0.0036453
Loading maneuver chart data...
Computing Atmospheric mass density...
Loading historical data...
Loading historical data...
Loading historical data...
Loading historical data...
Loading historical data...
Loading historical data...
Loading historical data...

Documentation

Showing up to 5 results
|